Change the Weather History Date:

Tuesday, January 22, 2013

  Actual Average Record
Temperature  
Mean Temperature -10 °F -  
Max Temperature -2 °F -18 °F 21 °F (2008)
Min Temperature -18 °F -38 °F -67 °F (1989)
Degree Days  
Heating Degree Days 75    
Moisture  
Dew Point -24 °F    
Average Humidity 55    
Maximum Humidity 92    
Minimum Humidity 34    
Precipitation  
Precipitation 0.00 in - - ()
Sea Level Pressure  
Sea Level Pressure 30.19 in    
Wind  
Wind Speed 8 mph (ENE)    
Max Wind Speed 13 mph    
Max Gust Speed 18 mph    
Visibility 10 miles    
Events      
Averages and records for this station are not official NWS values.
T = Trace of Precipitation, MM = Missing Value Source: NWS Daily Summary

Daily Weather History Graph

Daily Weather History Graph

Search for Another Location

Airport or City:

Trip Planner

Search our weather history database for the weather conditions in past years. The results will help you decide how hot, cold, wet, or windy it might be!

Date:

Astronomy

Jan. 22, 2013 Rise Set
Actual Time 10:42 AM AKST 3:06 PM AKST
Civil Twilight 9:17 AM AKST 4:31 PM AKST
Nautical Twilight 8:01 AM AKST 5:47 PM AKST
Astronomical Twilight 6:54 AM AKST 6:54 PM AKST
Moon 10:47 AM AKST (1/22) 7:59 AM AKST (1/22)
Length of Visible Light 7h 14m
Length of Day
4h 23m
Waxing Gibbous, 84% of the Moon is Illuminated
Jan 22
Waxing Gibbous
Jan 26
Full
Feb 3
Last Quarter
Feb 9
New
Feb 17
First Quarter

Hourly Weather History & Observations

Time (AKST) Temp. Windchill Dew Point Humidity Pressure Visibility Wind Dir Wind Speed Gust Speed Precip Events Conditions
12:16 AM -11.2 °F -29.0 °F - N/A% 30.29 in 10.0 mi ENE 9.2 mph - N/A   Clear
12:36 AM -11.2 °F -30.1 °F - N/A% 30.29 in 10.0 mi NE 10.4 mph - N/A   Clear
12:56 AM -11.2 °F -30.1 °F - N/A% 30.29 in 10.0 mi ENE 10.4 mph - N/A   Clear
1:16 AM -11.2 °F -27.8 °F - N/A% 30.29 in 10.0 mi ENE 8.1 mph - N/A   Clear
1:36 AM -11.2 °F -26.4 °F - N/A% 30.29 in 10.0 mi East 6.9 mph - N/A   Clear
1:56 AM -11.2 °F -26.4 °F -29.2 °F 41% 30.29 in 10.0 mi East 6.9 mph - N/A   Clear
2:16 AM -11.2 °F -26.4 °F -27.4 °F 45% 30.28 in 10.0 mi East 6.9 mph - N/A   Clear
2:36 AM -11.2 °F -26.4 °F -23.8 °F 54% 30.28 in 10.0 mi East 6.9 mph - N/A   Clear
2:56 AM -11.2 °F -27.8 °F -23.8 °F 54% 30.27 in 10.0 mi East 8.1 mph - N/A   Clear
3:16 AM -11.2 °F -27.8 °F -23.8 °F 54% 30.27 in 10.0 mi ENE 8.1 mph - N/A   Clear
3:36 AM -11.2 °F -27.8 °F - N/A% 30.26 in 10.0 mi ENE 8.1 mph - N/A   Clear
3:56 AM -11.2 °F -26.4 °F - N/A% 30.26 in 10.0 mi East 6.9 mph - N/A   Clear
4:16 AM -11.2 °F -26.4 °F - N/A% 30.25 in 10.0 mi East 6.9 mph - N/A   Clear
4:36 AM -11.2 °F -27.8 °F - N/A% 30.25 in 10.0 mi East 8.1 mph - N/A   Clear
4:56 AM -13.0 °F -30.0 °F - N/A% 30.24 in 10.0 mi ENE 8.1 mph - N/A   Clear
5:16 AM -11.2 °F -29.0 °F - N/A% 30.24 in 10.0 mi ENE 9.2 mph - N/A   Clear
5:36 AM -11.2 °F -27.8 °F - N/A% 30.24 in 10.0 mi ENE 8.1 mph - N/A   Clear
5:56 AM -11.2 °F -27.8 °F -29.2 °F 41% 30.23 in 10.0 mi ENE 8.1 mph - N/A   Clear
6:16 AM -11.2 °F -29.0 °F -27.4 °F 45% 30.23 in 10.0 mi ENE 9.2 mph - N/A   Clear
6:36 AM -11.2 °F -27.8 °F -22.0 °F 59% 30.23 in 10.0 mi East 8.1 mph - N/A   Clear
6:56 AM -13.0 °F -27.0 °F -27.4 °F 49% 30.23 in 10.0 mi East 5.8 mph - N/A   Clear
7:16 AM -13.0 °F -30.0 °F -14.8 °F 92% 30.22 in 10.0 mi ENE 8.1 mph - N/A   Clear
7:36 AM -13.0 °F -30.0 °F - N/A% 30.22 in 10.0 mi East 8.1 mph - N/A   Clear
7:56 AM -11.2 °F -30.1 °F - N/A% 30.22 in 10.0 mi NE 10.4 mph - N/A   Clear
8:16 AM -11.2 °F -30.1 °F - N/A% 30.22 in 10.0 mi NE 10.4 mph - N/A   Clear
8:36 AM -11.2 °F -30.1 °F - N/A% 30.22 in 10.0 mi NE 10.4 mph - N/A   Clear
8:56 AM -13.0 °F -31.3 °F - N/A% 30.22 in 10.0 mi ENE 9.2 mph - N/A   Clear
9:16 AM -11.2 °F -27.8 °F - N/A% 30.21 in 10.0 mi East 8.1 mph - N/A   Clear
9:36 AM -13.0 °F -28.6 °F - N/A% 30.21 in 10.0 mi East 6.9 mph - N/A   Clear
9:56 AM -14.8 °F -30.8 °F - N/A% 30.21 in 10.0 mi East 6.9 mph - N/A   Clear
10:16 AM -13.0 °F -27.0 °F - N/A% 30.21 in 10.0 mi East 5.8 mph - N/A   Clear
10:36 AM -14.8 °F - - N/A% 30.21 in 10.0 mi Calm Calm - N/A   Clear
10:56 AM -11.2 °F -26.4 °F -18.4 °F 70% 30.21 in 10.0 mi ENE 6.9 mph - N/A   Clear
11:16 AM -9.4 °F -25.6 °F - N/A% 30.20 in 10.0 mi ENE 8.1 mph - N/A   Clear
11:36 AM -9.4 °F -26.8 °F -14.8 °F 77% 30.20 in 10.0 mi ENE 9.2 mph - N/A   Clear
11:56 AM -9.4 °F -25.6 °F - N/A% 30.20 in 10.0 mi East 8.1 mph - N/A   Clear
12:16 PM -7.6 °F -22.1 °F - N/A% 30.20 in 10.0 mi ENE 6.9 mph - N/A   Clear
12:36 PM -9.4 °F -26.8 °F - N/A% 30.20 in 10.0 mi NE 9.2 mph - N/A   Clear
12:56 PM -7.6 °F -26.6 °F - N/A% 30.19 in 10.0 mi NE 11.5 mph 17.3 mph N/A   Clear
1:16 PM -7.6 °F -25.7 °F - N/A% 30.19 in 10.0 mi ENE 10.4 mph - N/A   Clear
1:36 PM -7.6 °F -24.6 °F -29.2 °F 34% 30.19 in 10.0 mi East 9.2 mph - N/A   Clear
1:56 PM -7.6 °F -24.6 °F -27.4 °F 38% 30.18 in 10.0 mi ENE 9.2 mph - N/A   Clear
2:16 PM -5.8 °F -21.2 °F -18.4 °F 55% 30.17 in 10.0 mi NE 8.1 mph - N/A   Clear
2:36 PM -2.2 °F -18.0 °F -16.6 °F 50% 30.17 in 10.0 mi NE 9.2 mph 16.1 mph N/A   Clear
2:56 PM -2.2 °F -20.7 °F -23.8 °F 35% 30.16 in 10.0 mi NE 12.7 mph 18.4 mph N/A   Clear
3:16 PM -2.2 °F -18.0 °F -9.4 °F 71% 30.16 in 10.0 mi NE 9.2 mph - N/A   Clear
3:36 PM -5.8 °F -22.4 °F -27.4 °F 35% 30.16 in 10.0 mi NE 9.2 mph - N/A   Clear
3:56 PM -5.8 °F -22.4 °F -22.0 °F 46% 30.15 in 10.0 mi ENE 9.2 mph - N/A   Clear
4:16 PM -11.2 °F -29.0 °F - N/A% 30.15 in 10.0 mi ENE 9.2 mph - N/A   Clear
4:36 PM -11.2 °F -27.8 °F - N/A% 30.15 in 10.0 mi ENE 8.1 mph - N/A   Clear
4:56 PM -11.2 °F -27.8 °F - N/A% 30.15 in 10.0 mi ENE 8.1 mph - N/A   Clear
5:16 PM - - - N/A% 30.13 in 10.0 mi ENE 9.2 mph - N/A   Clear
5:36 PM -13.0 °F -30.0 °F - N/A% 30.14 in 10.0 mi ENE 8.1 mph - N/A   Clear
5:56 PM -16.6 °F -31.3 °F - N/A% 30.14 in 10.0 mi East 5.8 mph - N/A   Clear
6:16 PM -16.6 °F -32.9 °F - N/A% 30.14 in 10.0 mi ENE 6.9 mph - N/A   Clear
6:36 PM -16.6 °F -35.7 °F - N/A% 30.13 in 10.0 mi NE 9.2 mph - N/A   Clear
6:56 PM -16.6 °F -36.8 °F - N/A% 30.13 in 10.0 mi ENE 10.4 mph - N/A   Clear
7:16 PM -14.8 °F -33.5 °F - N/A% 30.13 in 10.0 mi ENE 9.2 mph - N/A   Clear
7:36 PM -14.8 °F -33.5 °F -23.8 °F 64% 30.13 in 10.0 mi ENE 9.2 mph - N/A   Clear
7:56 PM -14.8 °F -34.6 °F -27.4 °F 53% 30.12 in 10.0 mi ENE 10.4 mph - N/A   Clear
8:16 PM -14.8 °F -32.2 °F -25.6 °F 58% 30.12 in 10.0 mi ENE 8.1 mph - N/A   Clear
8:36 PM -14.8 °F -34.6 °F -25.6 °F 58% 30.12 in 10.0 mi ENE 10.4 mph - N/A   Clear
8:56 PM -14.8 °F -30.8 °F -29.2 °F 48% 30.11 in 10.0 mi East 6.9 mph - N/A   Clear
9:16 PM -16.6 °F -29.3 °F -25.6 °F 64% 30.11 in 10.0 mi East 4.6 mph - N/A   Clear
9:36 PM -16.6 °F -31.3 °F - N/A% 30.10 in 10.0 mi East 5.8 mph - N/A   Clear
9:56 PM -16.6 °F -31.3 °F -25.6 °F 64% 30.10 in 10.0 mi East 5.8 mph - N/A   Clear
10:16 PM -16.6 °F - - N/A% 30.10 in 10.0 mi Calm Calm - N/A   Clear
10:36 PM -16.6 °F -31.3 °F - N/A% 30.09 in 10.0 mi East 5.8 mph - N/A   Clear
10:56 PM -18.4 °F -28.9 °F -25.6 °F 70% 30.08 in 10.0 mi East 3.5 mph - N/A   Clear
11:16 PM -18.4 °F -28.9 °F - N/A% 30.08 in 10.0 mi East 3.5 mph - N/A   Clear
11:36 PM -18.4 °F -31.4 °F -23.8 °F 76% 30.08 in 10.0 mi East 4.6 mph - N/A   Clear
11:56 PM -18.4 °F -39.1 °F - N/A% 30.06 in 10.0 mi NE 10.4 mph - N/A   Clear